CAPE
850 1484 1487 1099 645 1400 1731 1738 1670 1530 1327 1183 1073 997 813 563 143 0 0 0 0 0 0 0 0 0 0 0 0 0 0 0 0 165 158 60 0 401 58 660 506 580 215
1216 1376 1401 1144 1114 974 1387 1627 1634 1454 1292 1220 1050 749 494 106 0 0 0 0 0 0 0 0 0 0 0 0 0 0 0 0 0 102 138 237 0 883 1049 1068 724 510 529
1357 1587 1474 1183 1166 1146 1057 1453 1396 1305 1270 1116 841 589 184 0 0 0 1 1 0 0 0 0 0 0 0 0 0 0 0 0 0 0 11 31 478 1239 1143 909 662 642 613
1329 1416 1494 1229 1185 1312 958 1295 1334 1258 1172 1005 649 193 5 0 0 15 2 0 0 0 0 0 0 0 0 0 0 0 0 0 0 0 0 15 485 843 955 921 875 725 592
1379 1457 1597 1244 1094 1119 1065 1067 1147 1068 1012 676 231 49 8 9 22 10 4 0 0 0 0 0 0 0 0 0 0 0 0 0 0 0 0 0 3 40 48 87 288 49 0
1290 1402 1464 1261 1121 1026 951 805 999 989 831 368 103 66 35 41 26 8 17 11 0 0 0 0 0 0 0 0 0 0 0 0 0 0 0 0 0 0 0 0 0 0 0
929 1286 1444 938 973 1138 1144 956 1009 993 583 228 162 47 45 43 49 61 26 19 9 0 0 0 0 0 0 0 0 0 0 0 0 0 0 0 0 0 0 0 0 0 0
752 1129 1152 634 833 947 1238 878 1020 855 346 247 139 33 23 35 32 19 6 0 0 0 0 0 0 0 0 0 0 0 0 0 0 0 0 0 0 0 0 0 0 0 0
703 728 945 904 774 815 849 668 731 552 273 257 140 32 15 13 0 0 0 0 0 0 0 0 0 0 0 0 0 0 0 0 0 0 0 0 0 0 0 0 0 0 0
1024 985 840 938 1017 906 833 675 660 328 181 134 49 1 0 0 0 0 0 0 0 0 0 0 0 0 0 0 0 0 0 0 0 0 0 0 0 0 0 0 0 0 2
579 714 722 721 999 972 764 534 254 190 116 42 28 49 0 0 0 0 0 0 0 0 0 0 0 0 0 0 0 0 0 0 0 0 0 0 0 0 0 0 2 0 0
229 163 256 549 654 775 648 525 251 83 0 1 34 68 35 90 41 0 20 0 0 0 0 0 0 0 0 0 0 0 0 0 0 0 0 0 0 0 0 0 3 27 15
81 120 219 223 215 296 459 253 0 125 2 4 34 122 131 98 60 52 165 155 141 0 0 0 0 0 0 0 0 0 0 0 0 0 0 0 0 0 0 0 32 18 16
167 90 45 48 83 200 239 282 111 6 0 0 3 52 64 152 156 166 139 119 80 49 5 7 8 0 0 0 0 0 0 0 0 0 0 0 0 0 10 0 25 1 4
43 5 3 1 1 19 32 0 0 0 0 5 9 29 62 120 120 96 82 71 46 16 8 4 0 0 0 0 0 0 0 0 0 0 0 0 0 0 0 3 1 3 1
19 12 8 6 6 8 8 7 7 8 9 10 22 31 14 10 9 48 1 1 0 0 0 0 0 0 0 0 0 0 0 0 0 0 0 1 0 0 0 6 10 3 4
8 16 13 10 21 9 10 4 5 0 0 0 4 5 9 6 2 1 0 0 0 0 0 0 0 0 1 0 0 0 0 0 0 0 0 0 0 0 5 38 29 26 8
1 0 0 0 0 0 4 2 1 1 0 1 4 0 3 0 1 2 5 0 0 3 0 0 0 0 0 0 0 0 0 0 0 0 0 0 10 11 19 28 25 42 34
0 0 0 0 0 0 0 0 0 0 0 0 0 0 0 0 0 0 0 1 2 0 0 0 0 0 0 0 0 0 0 0 0 0 0 1 10 16 29 19 6 15 54
2 0 0 0 0 0 0 0 0 0 9 24 15 1 0 0 0 0 0 0 3 19 2 0 0 0 0 0 0 1 0 0 0 0 0 0 5 16 33 43 39 49 27
7 3 0 0 1 0 1 0 0 0 8 16 26 33 37 17 29 36 24 43 48 39 74 7 0 0 0 0 0 1 17 0 3 6 9 10 16 15 24 38 39 32 34
1 0 0 3 9 2 0 5 8 12 13 25 26 32 38 21 21 27 32 39 43 37 54 68 57 3 0 5 18 34 24 37 44 26 29 26 33 44 33 39 41 58 48
0 0 0 1 3 1 0 0 0 4 8 12 14 17 30 51 48 46 37 39 37 36 37 87 73 6 22 63 60 31 16 13 11 40 49 34 17 23 55 63 35 32 45
0 0 0 1 0 0 0 0 6 14 18 28 23 19 29 45 46 30 48 51 47 44 38 91 68 64 43 23 50 29 26 33 12 21 31 43 30 23 26 37 35 45 40
0 0 1 0 0 0 0 14 23 24 23 21 27 32 28 33 59 31 52 56 47 45 45 69 69 59 32 42 42 38 40 36 33 18 17 30 7 6 27 21 25 48 40
8 1 0 0 1 14 26 37 40 31 10 18 29 25 17 23 43 50 46 55 73 54 58 53 63 79 87 21 20 52 75 70 45 34 37 46 14 20 9 14 18 57 36
CIN
-2 -1 -2 -15 -40 -8 -1 -3 -4 -12 -16 -15 -15 -19 -29 -63 -198 0 0 0 0 0 0 0 0 0 0 0 0 0 0 0 0 -130 -100 -155 0 -72 -158 -36 -41 -3 -65
-1 0 -3 -12 -18 -39 -16 -3 0 -3 -9 -11 -14 -31 -63 -193 -8 0 0 0 0 0 0 0 0 0 0 0 0 0 0 0 0 -150 -93 -85 0 -11 -3 -3 -15 -23 -20
-1 -1 0 -7 -8 -7 -16 -3 0 -1 -1 -2 -12 -38 -146 0 0 0 -49 -49 0 0 0 0 0 0 0 0 0 0 0 0 0 0 -58 -12 -5 0 0 0 -5 -10 -7
-1 0 0 -6 -5 -2 -3 0 -1 -1 -5 -8 -44 -130 -99 0 0 -249 -108 0 0 0 0 0 0 0 0 0 0 0 0 0 0 0 0 -23 -2 -1 0 0 0 0 -2
-1 0 0 -3 -6 -2 0 -3 -2 0 -1 -30 -123 -179 -153 -156 -185 -209 -149 0 0 0 0 0 0 0 0 0 0 0 0 0 0 0 0 0 -1 -101 -122 -97 -2 -130 -20
-1 0 -3 -2 -1 -1 -2 -4 -5 -1 -9 -59 -123 -185 -233 -216 -206 -189 -179 -196 -46 0 0 0 0 0 0 0 0 0 0 0 0 0 0 0 0 0 0 0 0 0 0
-1 -1 0 -5 -8 -2 -2 -3 -4 0 -16 -65 -77 -148 -175 -198 -199 -178 -212 -208 -211 0 0 0 0 0 0 0 0 0 0 0 0 0 0 0 0 0 0 0 0 0 0
-6 -2 -1 -25 -12 -4 -1 -2 -3 0 -21 -41 -83 -131 -151 -166 -168 -192 -101 0 0 0 0 0 0 0 0 0 0 0 0 0 0 0 0 0 0 0 0 0 0 0 0
-5 0 -5 -2 -6 -5 -5 -7 -8 -7 -19 -37 -94 -157 -170 -158 -10 0 0 0 0 0 0 0 0 0 0 0 0 0 0 0 0 0 0 0 0 0 0 0 0 0 0
-1 -2 0 0 0 0 0 -3 -6 -28 -60 -93 -149 -17 0 0 0 0 0 0 0 0 0 0 0 0 0 0 0 0 0 0 0 0 0 0 0 0 0 0 0 0 -1
-20 -1 0 -2 -1 0 0 -3 -19 -48 -87 -82 -87 -139 0 0 0 0 0 0 0 0 0 0 0 0 0 0 0 0 0 0 0 0 0 0 0 0 0 0 0 0 0
-112 -114 -28 0 0 0 -1 -9 -36 -27 0 -21 -65 -23 -54 -53 -58 0 -40 0 0 0 0 0 0 0 0 0 0 0 0 0 0 0 0 0 0 0 0 0 -1 -2 -4
-162 -96 -16 -3 -8 -1 -5 -31 -10 -48 -54 -7 -34 -11 -5 -23 -18 -18 -1 -3 -6 0 0 0 0 0 0 0 0 0 0 0 0 0 0 0 0 0 0 0 0 -1 -6
-92 -102 -113 -82 -30 -11 -2 -1 -9 -16 0 0 -2 -22 -3 -3 -5 -4 -1 -2 -3 -2 -2 0 -1 0 0 0 0 0 0 0 0 0 0 0 0 0 0 0 0 -5 -15
-156 -1 -64 -1 0 -100 -72 0 0 0 0 -30 -27 -54 -23 -5 -2 -4 -1 -2 -1 0 -1 -1 0 0 0 0 0 0 0 0 0 0 0 0 0 0 0 -5 0 -2 -10
-95 -91 -54 -1 0 0 0 0 0 -4 -41 -32 -25 -24 -52 -49 -63 -12 -1 -1 0 0 0 0 0 0 0 -1 0 0 0 0 0 0 0 -1 0 0 0 -17 -6 -15 -13
0 -93 -110 -39 -140 0 0 0 0 0 0 -1 0 0 0 0 0 0 0 0 0 0 0 0 0 0 -2 0 0 0 0 0 0 0 0 0 -1 0 -12 -13 -14 -15 -19
0 0 0 0 0 0 0 0 0 0 0 0 0 0 0 0 0 0 -10 0 0 -11 0 0 0 0 0 0 0 0 0 0 0 0 0 0 -1 -1 -34 -20 -23 -10 -10
0 0 0 0 0 0 0 0 0 0 0 0 0 0 0 0 0 0 0 0 0 0 0 0 0 0 0 0 0 0 0 0 0 0 0 0 0 -1 -1 -24 -24 -23 -9
0 0 0 0 0 0 0 0 0 -1 0 0 -1 0 0 0 0 0 0 0 -24 -8 0 0 0 0 0 0 0 -1 0 0 0 0 0 0 0 0 -1 -1 -1 -20 -17
-1 0 0 0 -1 0 -1 0 0 -3 -2 -1 -1 0 0 0 -1 -1 0 -1 -2 0 0 0 0 0 0 0 0 -1 -3 0 -1 -1 -1 -1 -1 0 -1 -1 -1 -9 -3
-1 0 0 -1 -1 -1 0 -2 -1 -1 -2 -1 -1 0 -1 -1 -1 -1 -2 -1 -1 -1 -1 0 0 0 0 -1 -2 -2 -2 -9 -1 -2 0 -1 -1 -1 0 0 0 0 -1
0 0 0 -1 0 -1 0 0 -1 -2 -2 -2 -2 -2 -2 -1 -1 -1 0 -1 -1 -2 -2 0 -1 -6 -2 -2 -2 -1 -2 -3 -5 -2 -2 -1 -1 -2 -2 0 -1 0 0
0 0 0 -1 0 0 0 0 -1 -2 -3 -2 -2 -1 -2 -1 -1 0 -1 -1 -1 -1 -1 -1 -2 0 -2 -1 -1 -1 -2 -3 -2 -1 -1 -2 -1 -2 -1 -1 -1 0 0
0 0 -2 0 0 0 0 -2 -2 -3 -1 -2 -1 -1 -1 -2 -1 -1 -1 -1 -1 -1 -1 -1 0 0 -1 -1 -1 0 -2 -1 -1 0 -1 -5 -4 -7 -2 -1 -2 -1 -1
-3 -3 0 0 0 -1 -1 -2 -2 -2 -2 -3 -2 -2 -2 -1 -1 0 0 0 0 -1 0 0 0 0 0 -1 -1 -2 -1 0 0 -1 0 0 -1 -2 -5 -1 -2 -2 0
Wind_Speed
17 17 17 16 14 12 11 11 11 10 10 9 10 10 11 12 13 13 14 14 15 15 16 17 18 19 19 19 20 21 21 21 20 20 20 19 14 13 15 15 16 15 16
17 17 16 15 14 13 13 11 9 8 7 7 8 9 9 10 11 11 12 13 14 15 16 17 17 18 19 20 21 22 22 23 22 21 21 18 14 15 17 16 18 16 16
19 18 19 16 16 14 13 12 12 10 9 9 9 9 9 9 10 11 11 12 13 14 15 16 17 18 19 20 22 23 23 23 23 22 22 19 16 17 18 17 17 17 17
15 16 16 14 12 10 10 9 9 9 8 7 7 7 8 8 9 10 11 12 13 14 15 16 17 18 19 21 22 23 24 24 24 24 21 20 18 19 18 17 17 17 16
17 16 14 13 11 10 9 8 8 8 7 7 7 7 7 8 8 9 10 11 12 13 14 15 17 18 20 21 23 24 25 26 26 24 24 23 22 20 20 19 17 17 18
17 16 14 13 12 11 8 8 8 7 7 7 6 7 7 7 8 8 9 10 11 12 14 15 17 19 21 22 24 26 28 29 29 26 25 24 22 23 21 20 20 19 19
17 16 15 14 13 11 9 8 8 7 7 6 7 6 6 7 7 8 8 10 11 13 15 16 18 20 22 24 26 28 29 30 30 28 28 26 23 24 23 22 21 20 20
19 17 16 15 13 11 9 8 7 7 7 7 7 7 8 8 8 9 10 11 13 13 15 16 18 21 23 26 28 30 32 32 31 29 29 27 25 26 26 24 22 22 23
20 19 19 16 14 12 10 7 7 7 7 7 7 7 8 8 9 10 11 13 13 14 15 17 19 22 25 27 30 32 33 32 30 29 29 27 28 29 28 27 25 25 25
21 22 20 18 17 14 11 9 7 8 8 8 8 8 8 8 10 11 12 13 14 14 16 18 20 23 26 28 31 33 34 29 31 30 29 26 29 30 29 29 29 30 28
21 21 20 19 17 16 14 10 9 8 8 7 8 9 7 9 10 11 15 15 16 15 17 18 21 24 27 25 28 32 31 31 32 30 29 28 30 29 28 28 28 30 30
21 21 21 20 16 14 15 12 15 16 9 11 10 10 9 12 13 17 17 16 16 17 19 20 22 25 27 32 32 31 31 32 31 30 29 30 30 29 28 27 26 27 30
20 21 21 20 19 14 14 11 9 11 11 11 14 14 15 16 16 17 18 15 18 18 21 21 25 29 30 31 32 32 33 32 31 31 29 29 28 27 27 25 26 25 25
22 23 23 22 20 20 18 17 15 13 15 15 17 20 21 22 21 24 23 22 22 22 25 26 30 31 32 31 31 32 32 31 30 30 29 27 27 26 26 20 20 22 23
22 23 23 24 22 21 20 19 17 18 20 20 19 21 23 23 24 24 22 23 25 25 26 28 30 31 32 30 29 31 32 30 29 29 29 25 25 24 22 19 20 21 23
21 22 23 23 23 23 22 21 21 20 21 21 21 22 23 23 25 25 25 24 25 28 30 31 33 28 29 30 30 30 31 30 29 29 28 24 22 22 21 21 21 22 24
21 21 22 23 23 23 22 22 22 22 23 25 26 26 26 27 28 29 29 29 30 30 30 31 31 30 28 29 31 30 28 28 28 27 26 25 20 19 21 22 23 24 25
21 22 25 25 24 25 24 24 23 24 24 24 26 27 29 30 31 32 30 32 28 28 27 27 27 28 31 30 32 31 29 28 27 26 25 24 23 22 18 21 24 24 24
21 23 25 25 26 26 26 26 27 26 26 26 26 28 28 29 28 30 30 28 27 28 26 26 29 30 29 32 34 31 29 26 26 26 25 23 21 22 23 20 22 24 23
21 23 24 26 28 27 27 28 28 29 29 27 28 29 29 29 29 29 32 32 28 26 27 27 27 25 29 31 34 33 28 25 23 24 25 23 22 23 24 25 26 18 22
21 23 26 28 29 30 30 32 32 32 30 30 28 29 29 30 30 31 32 31 27 28 28 25 25 26 27 28 31 29 27 25 24 24 23 23 22 23 25 25 25 25 22
23 25 27 29 30 30 32 31 31 31 30 29 28 30 29 32 31 31 31 31 31 30 28 25 22 24 25 23 28 30 31 24 22 20 22 23 24 23 22 21 21 23 23
25 27 29 30 31 31 33 32 32 31 31 30 33 32 33 31 30 30 30 31 31 30 29 24 20 20 24 23 24 26 27 26 25 21 20 23 25 25 23 23 22 21 22
26 27 30 31 32 33 33 34 33 33 33 32 31 32 34 32 31 30 30 30 30 30 28 25 20 21 21 24 22 20 22 24 24 24 21 22 23 23 24 24 24 23 23
26 29 30 31 32 32 33 33 32 33 33 32 32 34 31 30 28 28 28 28 28 28 27 24 21 21 22 22 22 21 20 19 19 23 24 23 23 24 25 25 24 23 24
27 30 31 31 33 33 34 33 33 33 32 32 32 32 32 31 28 27 28 27 26 25 24 23 22 21 20 21 20 20 19 18 19 20 23 24 24 24 25 25 25 23 24
Wind_Direction
86 85 90 82 71 54 48 51 60 64 63 57 55 50 48 47 47 49 48 47 38 30 25 20 17 16 12 4 358 353 350 344 341 334 328 337 350 352 343 342 331 344 337
76 83 85 81 76 72 67 56 50 45 44 38 37 37 39 43 44 41 40 39 39 32 27 20 14 11 7 2 357 351 347 341 338 335 327 351 353 343 332 336 321 334 333
77 86 102 87 83 71 66 69 70 58 53 51 44 41 40 40 40 41 40 32 28 29 22 16 16 12 7 0 355 351 346 342 337 331 328 344 352 334 330 329 329 330 327
50 78 81 76 58 36 28 33 38 41 39 32 29 33 33 33 35 35 39 39 33 27 22 17 12 7 5 1 356 351 345 341 335 325 336 338 342 337 334 333 333 333 334
69 70 56 60 44 26 18 26 24 16 14 20 32 26 20 19 21 30 29 28 24 18 13 10 6 2 357 353 349 345 340 333 325 333 331 330 324 337 329 327 334 330 324
69 54 49 52 43 30 15 355 4 359 359 358 11 23 25 19 18 27 21 15 12 7 4 2 0 358 355 351 347 343 338 332 320 330 330 329 325 326 326 324 322 323 323
50 44 43 41 35 34 23 355 349 346 342 337 337 349 2 4 3 358 1 359 358 355 354 355 354 353 351 348 344 340 336 330 323 325 322 321 324 322 320 320 320 319 319
57 58 58 53 48 39 15 358 345 341 330 328 328 335 340 344 348 350 348 351 353 356 354 353 351 349 346 342 339 336 333 329 323 325 323 322 323 316 314 314 315 314 312
58 53 34 54 54 39 22 359 358 328 316 322 338 337 334 337 340 346 348 346 346 346 345 345 345 342 341 339 338 336 335 333 328 327 324 322 322 316 311 308 309 308 307
54 39 56 59 44 58 55 356 10 322 311 333 336 335 341 342 336 336 341 339 336 336 338 339 338 335 334 334 336 334 333 336 332 332 326 325 322 316 310 308 305 300 300
24 18 32 45 50 56 73 22 6 357 332 343 342 335 346 335 335 334 330 331 330 332 333 334 335 333 332 339 340 337 334 334 332 332 330 328 323 318 315 311 308 306 302
11 8 4 23 53 66 35 31 290 301 331 323 332 328 330 326 324 317 323 323 324 324 326 327 328 328 330 326 327 332 331 330 331 331 330 329 324 320 315 313 313 316 308
31 12 5 15 21 37 36 38 39 329 332 330 323 321 316 316 316 314 315 323 316 316 316 321 321 320 322 324 324 327 327 328 328 329 331 332 329 325 320 314 311 315 322
24 3 354 2 16 10 355 357 354 341 326 323 319 311 307 306 308 306 308 310 312 312 311 314 314 317 318 320 323 325 325 327 327 327 329 332 329 328 324 324 324 322 321
25 11 7 10 8 3 353 0 359 337 321 322 322 320 313 309 308 309 311 308 309 311 312 313 316 318 317 320 324 327 326 327 327 330 329 333 330 330 335 335 330 327 323
27 16 8 10 4 11 9 3 355 343 329 324 326 326 322 317 312 309 308 308 311 310 309 312 313 320 318 319 322 327 326 325 326 328 329 331 333 331 331 329 327 325 323
17 12 2 359 5 4 4 4 358 341 327 318 316 317 315 312 309 307 306 304 306 307 309 309 312 314 316 317 322 327 330 328 326 328 328 328 333 332 327 325 322 322 321
13 7 1 8 6 1 358 355 348 339 333 327 321 317 315 312 311 310 308 303 310 309 310 314 311 319 314 316 316 323 326 325 324 325 328 328 328 327 333 328 322 321 321
16 6 4 5 2 356 351 346 341 335 331 327 324 320 320 318 315 312 311 319 315 310 310 312 312 312 312 314 314 321 324 324 320 321 326 329 328 325 322 328 322 317 319
11 8 8 4 357 355 349 344 338 333 330 328 323 322 319 318 318 316 309 309 311 310 309 309 309 315 314 313 315 318 320 323 326 325 324 327 326 323 319 317 313 321 322
12 9 3 358 354 352 345 340 337 332 331 327 327 326 323 321 319 317 314 312 315 311 308 311 310 310 316 318 318 319 318 322 321 323 330 331 330 324 316 314 312 313 321
4 3 359 356 355 353 348 345 341 337 332 330 330 325 325 322 320 320 318 315 315 311 311 311 313 315 320 321 319 320 316 318 321 325 325 327 330 326 326 327 322 316 318
359 356 355 352 351 351 347 343 341 337 333 330 327 325 326 324 322 321 320 319 316 316 315 314 313 314 318 322 321 321 321 319 322 327 328 329 329 325 325 322 323 321 319
357 355 351 349 349 347 347 342 339 336 333 332 330 329 324 325 322 320 319 318 317 317 317 316 316 316 318 321 327 325 325 327 323 321 330 334 333 331 329 325 319 314 314
354 350 351 351 350 349 346 344 342 339 336 335 333 330 330 330 329 325 324 322 319 318 317 319 316 317 319 321 324 329 330 332 332 326 324 329 332 332 330 327 324 320 316
352 351 350 349 349 348 345 344 342 340 338 337 336 335 334 332 332 330 329 328 326 324 323 322 320 319 320 324 327 331 335 333 335 336 331 331 328 332 332 327 323 322 320